[[{"header":{"parameterUnit":"m.s-1","parameterCategory":1,"la1":30.2991,"la2":30.254,"lo1":-89.0895,"lo2":-89.0444,"dy":0.0017,"dx":0.0017,"nx":28,"ny":28,"refTime":"2023-04-26T21:00:00:Z","depth":0,"parameterNumber":2,"parameterNumberName":"U-component_of_WINDS"},"data":[0,0,0,0,0,0,0,0,0,0,0,0,0,0,0,0,0,0,0,0,0,0,0,0,0,0,0,0,0,0,0,0,0,0,0,0,0,0,0,0,0,0,0,0,0,0,0,0,0,0,0,0,0,0,0,0,0,0,-3.1578,-3.1578,0,-3.1586,-3.1587,-3.1587,-3.1541,-3.1539,-3.1538,-3.1537,-3.1546,-3.1548,-3.1549,0,0,0,0,0,0,0,0,0,0,0,0,0,-3.1523,-3.1525,-3.1578,-3.1578,-3.1578,-3.1586,-3.1587,-3.1587,-3.1541,-3.1539,-3.1538,-3.1536,-3.1546,-3.1548,-3.1549,0,0,0,0,0,0,0,0,0,0,0,0,0,-3.1541,-3.1525,-3.1578,-3.1556,-3.1554,-3.1586,-3.1587,-3.1587,-3.1541,-3.1539,-3.1537,-3.1535,-3.1545,-3.1547,-3.155,-3.1603,0,0,-3.1556,-3.1557,0,0,0,0,0,0,0,0,-3.154,-3.1543,-3.1559,-3.1558,-3.1556,-3.156,-3.1571,-3.1592,-3.1542,-3.1546,-3.1537,-3.1534,-3.1553,-3.1554,-3.156,-3.1604,-3.1604,-3.1557,-3.1558,-3.1559,-3.156,0,0,0,0,0,0,0,-3.1539,-3.1543,-3.1581,-3.1559,-3.1557,-3.1547,-3.1547,-3.1575,-3.1561,-3.1546,-3.1542,-3.1544,-3.1551,-3.1558,-3.156,-3.1604,-3.1557,-3.1559,-3.156,-3.1561,-3.1694,-3.1696,0,0,0,0,0,0,-3.154,-3.1542,-3.1581,-3.1581,-3.1543,-3.1549,-3.155,-3.1561,-3.156,-3.1558,-3.1546,-3.1542,-3.1555,-3.1558,-3.156,-3.1623,-3.1559,-3.1561,-3.1562,-3.1691,-3.1694,-3.1696,0,0,0,0,0,0,-3.1539,-3.1544,-3.158,-3.1561,-3.1565,-3.1552,-3.1565,-3.1562,-3.1569,-3.156,-3.1557,-3.1555,-3.1554,-3.1557,-3.1593,-3.1623,-3.1562,-3.1564,-3.1689,-3.1692,-3.1695,-3.1749,0,0,0,0,0,0,-3.1538,-3.1544,-3.1564,-3.1562,-3.1566,-3.1613,-3.1567,-3.1564,-3.1573,-3.1568,-3.1568,-3.1566,-3.1553,-3.159,-3.1595,-3.1625,-3.1566,-3.1686,-3.169,-3.1694,-3.1744,-3.1754,-3.1761,0,0,0,0,0,-3.1536,-3.1578,-3.1565,-3.157,-3.159,-3.1614,-3.1617,-3.16,-3.1575,-3.1595,-3.159,-3.1566,-3.1619,-3.1594,-3.16,-3.163,-3.1684,-3.1689,-3.1694,-3.174,-3.1752,-3.1761,0,0,0,0,0,0,-3.1584,-3.1577,-3.1562,-3.1605,-3.1611,-3.1606,-3.163,-3.1612,-3.1625,-3.162,-3.1599,-3.1599,-3.1639,-3.1638,-3.1611,-3.1683,-3.1647,-3.1654,-3.1681,-3.1692,-3.17,-3.1698,-3.1568,0,0,0,0,0,-3.1599,-3.1619,-3.1613,-3.1651,-3.1655,-3.1643,-3.1653,-3.1639,-3.1644,-3.1646,-3.1644,-3.165,-3.1668,-3.168,-3.1696,-3.1745,-3.1745,-3.1769,-3.1778,-3.1785,-3.179,-3.1816,-3.1827,-3.1713,-3.1713,-3.1712,0,0,-3.1631,-3.163,-3.1644,-3.1661,-3.1663,-3.1685,-3.1645,-3.1669,-3.1685,-3.165,-3.1684,-3.1683,-3.1688,-3.1731,-3.175,-3.1732,-3.1822,-3.1791,-3.1797,-3.1798,-3.1823,-3.1834,-3.1843,-3.1716,-3.1715,-3.1715,0,0,-3.1699,-3.1701,-3.1733,-3.1737,-3.1742,-3.1735,-3.1743,-3.1742,-3.174,-3.1774,-3.1748,-3.1768,-3.1799,-3.1805,-3.1811,-3.1886,-3.1865,-3.1892,-3.1936,-3.1962,-3.1971,-3.1979,-3.2005,-3.2015,-3.1898,-3.1898,-3.1898,0,-3.1738,-3.1769,-3.1752,-3.1779,-3.1787,-3.1758,-3.1791,-3.1796,-3.1806,-3.1813,-3.1793,-3.1833,-3.1835,-3.1879,-3.1897,-3.1904,-3.1913,-3.1891,-3.1971,-3.1979,-3.1986,-3.2011,-3.2021,-3.1901,-3.1901,-3.19,-3.19,0,-3.1817,-3.1839,-3.1865,-3.1876,-3.1887,-3.1917,-3.1905,-3.192,-3.1907,-3.1901,-3.1937,-3.1939,-3.1955,-3.1965,-3.1952,-3.2008,-3.1997,-3.1975,-3.1938,-3.2001,-3.2023,-3.2033,-3.1906,-3.1904,-3.1903,-3.1903,0,0,-3.1912,-3.1915,-3.1925,-3.193,-3.1935,-3.1952,-3.1982,-3.1998,-3.2011,-3.202,-3.2044,-3.2073,-3.2053,-3.2061,-3.205,-3.2073,-3.2132,-3.2048,-3.2048,-3.2063,-3.2194,-3.2209,-3.2221,-3.2119,-3.2121,-3.2122,-3.2193,0,-3.1979,-3.2028,-3.2015,-3.2064,-3.2085,-3.2059,-3.2085,-3.2092,-3.2088,-3.2107,-3.2103,-3.2124,-3.2096,-3.2101,-3.2123,-3.212,-3.2158,-3.2115,-3.2141,-3.2143,-3.2139,-3.2233,-3.2249,-3.2315,-3.2202,-3.2204,-3.2205,0,-3.2062,-3.2075,-3.2126,-3.213,-3.2138,-3.2161,-3.2176,-3.2194,-3.2202,-3.2198,-3.2208,-3.2192,-3.2223,-3.2188,-3.223,-3.2201,-3.2212,-3.2213,-3.2215,-3.2215,-3.2176,-3.2234,-3.2336,-3.2346,-3.2219,-3.2218,-3.2217,0,-3.2126,-3.2156,-3.2191,-3.2197,-3.2201,-3.2219,-3.2221,-3.2227,-3.2239,-3.2252,-3.226,-3.2277,-3.2286,-3.23,-3.229,-3.2266,-3.2334,-3.2298,-3.2331,-3.2332,-3.2345,-3.2344,-3.2448,-3.2354,-3.2354,-3.2354,-3.2354,0,-3.22,-3.2233,-3.222,-3.2241,-3.2278,-3.2263,-3.23,-3.23,-3.2306,-3.2328,-3.2307,-3.2328,-3.2314,-3.2335,-3.2327,-3.2363,-3.2368,-3.2366,-3.2363,-3.2367,-3.2367,-3.2372,-3.2366,-3.2357,-3.2356,-3.2356,-3.2355,0,-3.2276,-3.2269,-3.2305,-3.2308,-3.2309,-3.2336,-3.2338,-3.2359,-3.2355,-3.2383,-3.2389,-3.2384,-3.2407,-3.2399,-3.2423,-3.2418,-3.2464,-3.2456,-3.2461,-3.2459,-3.2492,-3.2489,-3.2602,-3.2616,-3.2514,-3.2515,-3.2516,0,-3.2323,-3.2348,-3.2353,-3.2367,-3.2371,-3.2392,-3.2404,-3.2392,-3.2406,-3.2418,-3.2437,-3.2459,-3.2475,-3.2513,-3.2512,-3.2531,-3.2523,-3.2561,-3.2525,-3.2529,-3.2522,-3.252,-3.2523,-3.2568,-3.2569,-3.257,-3.2571,0,-3.2408,-3.2404,-3.2421,-3.2439,-3.2454,-3.2467,-3.2478,-3.249,-3.2479,-3.2495,-3.2519,-3.2532,-3.2558,-3.2579,-3.2597,-3.2601,-3.2584,-3.2583,-3.2591,-3.2594,-3.2596,-3.2595,-3.2479,-3.2579,-3.2578,-3.2578,-3.2577,-3.2577,-3.247,-3.2491,-3.2499,-3.252,-3.2528,-3.2539,-3.2559,-3.2559,-3.2578,-3.2598,-3.259,-3.2617,-3.2627,-3.2649,-3.2656,-3.2677,-3.2662,-3.2675,-3.2678,-3.2681,-3.2685,-3.2594,-3.2681,-3.2681,-3.268,-3.268,-3.268,0,-3.2553,-3.2558,-3.2577,-3.2594,-3.2611,-3.2595,-3.2607,-3.2623,-3.2647,-3.2657,-3.2674,-3.2702,-3.2723,-3.2725,-3.2746,-3.2763,-3.2756,-3.2769,-3.2766,-3.2768,-3.2697,-3.2687,-3.2774,-3.2774,-3.2774,-3.2774,-3.2774,-3.2774,-3.2598,-3.2633,-3.2631,-3.267,-3.2674,-3.27,-3.2709,-3.272,-3.2728,-3.276,-3.2778,-3.2779,-3.2786,-3.2808,-3.2827,-3.2827,-3.2836,-3.2851,-3.2848,-3.2782,-3.2772,-3.2763,-3.2754,-3.2853,-3.2853,-3.2917,-3.2917,-3.2918]},{"header":{"parameterUnit":"m.s-1","parameterCategory":1,"la1":30.2991,"la2":30.254,"lo1":-89.0895,"lo2":-89.0444,"dy":0.0017,"dx":0.0017,"nx":28,"ny":28,"refTime":"2023-04-26T21:00:00:Z","depth":0,"parameterNumber":3,"parameterNumberName":"V-component_of_WINDS"},"data":[0,0,0,0,0,0,0,0,0,0,0,0,0,0,0,0,0,0,0,0,0,0,0,0,0,0,0,0,0,0,0,0,0,0,0,0,0,0,0,0,0,0,0,0,0,0,0,0,0,0,0,0,0,0,0,0,0,0,2.2191,2.2191,0,2.2218,2.2218,2.2218,2.2263,2.2264,2.2265,2.2265,2.2289,2.2289,2.2289,0,0,0,0,0,0,0,0,0,0,0,0,0,2.2175,2.2175,2.2191,2.2191,2.2191,2.2218,2.2218,2.2218,2.2263,2.2264,2.2265,2.2266,2.2289,2.2289,2.2289,0,0,0,0,0,0,0,0,0,0,0,0,0,2.219,2.2175,2.2191,2.2217,2.2219,2.2218,2.2218,2.2218,2.2263,2.2264,2.2265,2.2266,2.2289,2.2289,2.2289,2.2262,0,0,2.2288,2.2288,0,0,0,0,0,0,0,0,2.2189,2.219,2.2213,2.2215,2.2218,2.2238,2.2221,2.2233,2.2262,2.2246,2.2265,2.2267,2.2271,2.2272,2.2275,2.2264,2.2265,2.2288,2.2288,2.2288,2.2288,0,0,0,0,0,0,0,2.2188,2.219,2.2201,2.2213,2.2216,2.2226,2.223,2.2224,2.2251,2.2248,2.2251,2.2254,2.2273,2.2275,2.2275,2.2265,2.2288,2.2288,2.2288,2.2288,2.2235,2.2234,0,0,0,0,0,0,2.2184,2.2188,2.22,2.2202,2.2206,2.2226,2.223,2.223,2.2251,2.2256,2.2253,2.2256,2.2274,2.2276,2.2276,2.2248,2.2288,2.2288,2.2288,2.2236,2.2235,2.2233,0,0,0,0,0,0,2.2183,2.2184,2.2199,2.2196,2.2199,2.2225,2.2225,2.223,2.2232,2.2255,2.226,2.225,2.2275,2.2277,2.2266,2.2249,2.2288,2.2287,2.2238,2.2236,2.2234,2.219,0,0,0,0,0,0,2.2182,2.2184,2.2174,2.2196,2.2199,2.2189,2.2224,2.223,2.2232,2.2237,2.2254,2.2258,2.2277,2.2266,2.2266,2.225,2.2287,2.2239,2.2237,2.2235,2.2193,2.2187,2.2181,0,0,0,0,0,2.2182,2.216,2.2174,2.2175,2.2188,2.2188,2.219,2.2213,2.2231,2.2221,2.2236,2.2257,2.2251,2.2265,2.2265,2.2248,2.2241,2.2238,2.2235,2.2196,2.2188,2.2182,0,0,0,0,0,0,2.2134,2.2163,2.2179,2.2163,2.2173,2.2196,2.2184,2.2204,2.2208,2.2212,2.2239,2.2243,2.2229,2.2237,2.2252,2.2225,2.2249,2.2246,2.2219,2.2212,2.2207,2.2205,2.2287,0,0,0,0,0,2.2122,2.2121,2.2146,2.2129,2.2134,2.2158,2.2159,2.2176,2.2187,2.2191,2.2205,2.2214,2.2214,2.2214,2.2215,2.2195,2.2199,2.2183,2.2177,2.2173,2.217,2.216,2.2154,2.2224,2.2224,2.2224,0,0,2.2097,2.2112,2.2109,2.212,2.213,2.2128,2.2161,2.2157,2.2155,2.219,2.2182,2.2192,2.2204,2.2189,2.2182,2.2195,2.2151,2.2169,2.2165,2.2165,2.2157,2.215,2.2144,2.2222,2.2222,2.2223,0,0,2.2049,2.2061,2.2049,2.2059,2.2074,2.2091,2.2088,2.2108,2.2117,2.2109,2.2136,2.2133,2.2133,2.2141,2.2145,2.2102,2.2121,2.2101,2.2071,2.2062,2.2056,2.2051,2.2037,2.2031,2.2098,2.2098,2.2098,0,2.2015,2.2014,2.2041,2.2035,2.2039,2.2073,2.2061,2.2069,2.2082,2.2084,2.2099,2.2101,2.2111,2.2098,2.2088,2.209,2.2087,2.2099,2.2055,2.205,2.2046,2.2033,2.2027,2.2096,2.2096,2.2096,2.2097,0,2.1972,2.197,2.1959,2.1974,2.1977,2.1968,2.1993,2.1993,2.201,2.2025,2.2017,2.203,2.2036,2.2034,2.205,2.2024,2.2032,2.205,2.2076,2.2037,2.2024,2.2019,2.2092,2.2093,2.2094,2.2094,0,0,2.1894,2.1925,2.1921,2.1929,2.1948,2.1947,2.194,2.1947,2.1946,2.1955,2.195,2.1949,2.1967,2.1972,2.1989,2.1981,2.1947,2.2,2.2001,2.199,2.192,2.1906,2.19,2.196,2.1959,2.1959,2.1919,0,2.1851,2.1843,2.1867,2.1852,2.1851,2.1883,2.1877,2.1888,2.1902,2.1903,2.1918,2.1918,2.1941,2.1944,2.1937,2.1952,2.1933,2.1956,2.1955,2.1955,2.1952,2.1893,2.1878,2.184,2.1914,2.1914,2.1913,0,2.18,2.1808,2.1793,2.1815,2.1815,2.181,2.1819,2.1819,2.1832,2.1843,2.1849,2.187,2.1864,2.1888,2.1881,2.1896,2.1897,2.1905,2.1904,2.1905,2.1932,2.1893,2.1829,2.1823,2.1906,2.1906,2.1907,0,2.1746,2.1753,2.1745,2.175,2.1775,2.1771,2.1781,2.1796,2.1798,2.1806,2.1808,2.1814,2.1817,2.1821,2.1843,2.1859,2.1833,2.1859,2.1842,2.1841,2.1835,2.1835,2.1771,2.1835,2.1835,2.1835,2.1835,0,2.1696,2.1685,2.1722,2.1717,2.1706,2.1734,2.1723,2.1736,2.1749,2.1747,2.1774,2.1772,2.1801,2.1801,2.1818,2.181,2.1811,2.1819,2.1824,2.1817,2.1816,2.1818,2.1821,2.1834,2.1834,2.1834,2.1835,0,2.1633,2.1657,2.1651,2.1676,2.1682,2.1673,2.1694,2.1691,2.1707,2.1704,2.1705,2.173,2.1732,2.1755,2.1761,2.1772,2.1758,2.1767,2.1753,2.1757,2.1738,2.174,2.1673,2.1666,2.1734,2.1734,2.1733,0,2.16,2.1593,2.1618,2.1619,2.1628,2.163,2.1634,2.1661,2.1664,2.1679,2.1674,2.1678,2.1684,2.1685,2.1704,2.1709,2.1719,2.1695,2.172,2.1713,2.1719,2.1719,2.1719,2.169,2.1689,2.1688,2.1688,0,2.1538,2.1551,2.1556,2.1565,2.1569,2.1577,2.1587,2.1586,2.1617,2.1618,2.1622,2.1626,2.1634,2.1638,2.1647,2.1656,2.1677,2.168,2.1676,2.1669,2.1662,2.1666,2.174,2.1681,2.1682,2.1682,2.1683,2.1683,2.149,2.1486,2.1503,2.1508,2.1519,2.1527,2.1526,2.1543,2.1546,2.1556,2.1571,2.1573,2.1587,2.1601,2.1609,2.161,2.1622,2.1617,2.1615,2.1614,2.161,2.1662,2.1612,2.1612,2.1612,2.1612,2.1612,0,2.143,2.1443,2.1447,2.1461,2.1465,2.1486,2.1498,2.15,2.1501,2.1513,2.1518,2.1522,2.1527,2.1546,2.1553,2.155,2.156,2.1551,2.1551,2.1554,2.1599,2.1601,2.1543,2.1543,2.1543,2.1543,2.1543,2.1543,2.14,2.1394,2.1409,2.1409,2.1422,2.1425,2.143,2.1438,2.1448,2.1452,2.1457,2.147,2.1485,2.1493,2.1498,2.1504,2.1505,2.1493,2.1502,2.1543,2.155,2.1556,2.1559,2.1493,2.1493,2.1457,2.1457,2.1456]}]]